Time,TemperatureF,DewpointF,PressureIn,WindDirection,WindDirectionDegrees,WindSpeedMPH,WindSpeedGustMPH,Humidity,HourlyPrecipIn,Conditions,Clouds,dailyrainin,SoftwareType,DateUTC
2015-05-29 00:00:00,59.0,59.0,30.21,WSW,250,0.0,0.0,100,0.00,CLR,,0.00,WeatherDisplay:10.37,2015-05-28 14:00:00,
2015-05-29 00:05:00,59.0,59.0,30.21,WSW,250,0.0,0.0,100,0.00,CLR,,0.00,WeatherDisplay:10.37,2015-05-28 14:05:00,
2015-05-29 00:10:00,59.0,59.0,30.21,WSW,250,0.0,0.0,100,0.00,CLR,,0.00,WeatherDisplay:10.37,2015-05-28 14:10:00,
2015-05-29 00:15:00,59.0,59.0,30.21,WSW,250,3.0,3.0,100,0.00,CLR,,0.00,WeatherDisplay:10.37,2015-05-28 14:15:00,
2015-05-29 00:20:00,59.0,59.0,30.21,WSW,250,3.0,3.0,100,0.00,CLR,,0.00,WeatherDisplay:10.37,2015-05-28 14:20:00,
2015-05-29 00:25:00,59.0,59.0,30.21,WSW,250,3.0,3.0,100,0.00,CLR,,0.00,WeatherDisplay:10.37,2015-05-28 14:25:00,
2015-05-29 00:30:00,59.0,59.0,30.21,WSW,250,3.0,3.0,100,0.00,CLR,,0.00,WeatherDisplay:10.37,2015-05-28 14:30:00,
2015-05-29 00:35:00,59.0,59.0,30.21,WSW,250,3.0,3.0,100,0.00,CLR,,0.00,WeatherDisplay:10.37,2015-05-28 14:35:00,
2015-05-29 00:40:00,59.0,59.0,30.21,WSW,250,3.0,3.0,100,0.00,CLR,,0.00,WeatherDisplay:10.37,2015-05-28 14:40:00,
2015-05-29 00:45:00,59.0,59.0,30.21,WSW,250,3.0,3.0,100,0.00,CLR,,0.00,WeatherDisplay:10.37,2015-05-28 14:45:00,
2015-05-29 00:50:00,59.0,59.0,30.21,WSW,250,3.0,3.0,100,0.00,CLR,,0.00,WeatherDisplay:10.37,2015-05-28 14:50:00,
2015-05-29 00:55:00,57.2,55.2,30.21,WSW,244,5.0,5.0,93,0.00,CLR,,0.00,WeatherDisplay:10.37,2015-05-28 14:55:00,
2015-05-29 01:00:00,57.2,55.2,30.21,WSW,240,5.0,5.0,93,0.00,CLR,,0.00,WeatherDisplay:10.37,2015-05-28 15:00:00,
2015-05-29 01:05:00,57.2,55.2,30.21,WSW,240,5.0,5.0,93,0.00,CLR,,0.00,WeatherDisplay:10.37,2015-05-28 15:05:00,
2015-05-29 01:10:00,57.2,55.2,30.21,WSW,240,5.0,5.0,93,0.00,CLR,,0.00,WeatherDisplay:10.37,2015-05-28 15:10:00,
2015-05-29 01:15:00,59.0,57.0,30.21,WSW,245,6.0,6.0,93,0.00,CLR,,0.00,WeatherDisplay:10.37,2015-05-28 15:15:00,
2015-05-29 01:20:00,59.0,57.0,30.21,WSW,250,6.0,6.0,93,0.00,CLR,,0.00,WeatherDisplay:10.37,2015-05-28 15:20:00,
2015-05-29 01:25:00,59.0,57.0,30.21,WSW,250,6.0,6.0,93,0.00,CLR,,0.00,WeatherDisplay:10.37,2015-05-28 15:25:00,
2015-05-29 01:30:00,59.0,57.0,30.21,WSW,250,6.0,6.0,93,0.00,CLR,,0.00,WeatherDisplay:10.37,2015-05-28 15:30:00,
2015-05-29 01:35:00,59.0,57.0,30.21,WSW,250,6.0,6.0,93,0.00,CLR,,0.00,WeatherDisplay:10.37,2015-05-28 15:35:00,
2015-05-29 01:40:00,59.0,57.0,30.21,WSW,250,6.0,6.0,93,0.00,CLR,,0.00,WeatherDisplay:10.37,2015-05-28 15:40:00,
2015-05-29 01:45:00,59.0,57.0,30.21,WSW,250,6.0,6.0,93,0.00,CLR,,0.00,WeatherDisplay:10.37,2015-05-28 15:45:00,
2015-05-29 01:50:00,59.0,57.0,30.21,WSW,250,6.0,6.0,93,0.00,CLR,,0.00,WeatherDisplay:10.37,2015-05-28 15:50:00,
2015-05-29 01:55:00,57.2,55.2,30.21,WSW,245,5.0,6.0,93,0.00,CLR,,0.00,WeatherDisplay:10.37,2015-05-28 15:55:00,
2015-05-29 02:00:00,57.2,55.2,30.21,WSW,240,5.0,5.0,93,0.00,CLR,,0.00,WeatherDisplay:10.37,2015-05-28 16:00:00,
2015-05-29 02:05:00,57.2,55.2,30.21,WSW,240,5.0,5.0,93,0.00,CLR,,0.00,WeatherDisplay:10.37,2015-05-28 16:05:00,
2015-05-29 02:10:00,57.2,55.2,30.21,WSW,240,5.0,5.0,93,0.00,CLR,,0.00,WeatherDisplay:10.37,2015-05-28 16:10:00,
2015-05-29 02:15:00,59.0,57.0,30.18,SW,236,2.0,5.0,93,0.00,CLR,,0.00,WeatherDisplay:10.37,2015-05-28 16:15:00,
2015-05-29 02:20:00,59.0,57.0,30.18,SW,230,2.0,2.0,93,0.00,CLR,,0.00,WeatherDisplay:10.37,2015-05-28 16:20:00,
2015-05-29 02:25:00,59.0,57.0,30.18,SW,230,2.0,2.0,93,0.00,CLR,,0.00,WeatherDisplay:10.37,2015-05-28 16:25:00,
2015-05-29 02:30:00,59.0,57.0,30.18,SW,230,2.0,2.0,93,0.00,CLR,,0.00,WeatherDisplay:10.37,2015-05-28 16:30:00,
2015-05-29 02:35:00,59.0,57.0,30.18,SW,230,2.0,2.0,93,0.00,CLR,,0.00,WeatherDisplay:10.37,2015-05-28 16:35:00,
2015-05-29 02:40:00,59.0,57.0,30.18,SW,230,2.0,2.0,93,0.00,CLR,,0.00,WeatherDisplay:10.37,2015-05-28 16:40:00,
2015-05-29 02:45:00,59.0,57.0,30.18,SW,230,2.0,2.0,93,0.00,CLR,,0.00,WeatherDisplay:10.37,2015-05-28 16:45:00,
2015-05-29 02:50:00,59.0,57.0,30.18,SW,230,2.0,2.0,93,0.00,CLR,,0.00,WeatherDisplay:10.37,2015-05-28 16:50:00,
2015-05-29 02:55:00,57.2,55.2,30.18,SW,223,1.0,2.0,93,0.00,CLR,,0.00,WeatherDisplay:10.37,2015-05-28 16:55:00,
2015-05-29 03:00:00,57.2,55.2,30.18,SSW,210,1.0,1.0,93,0.00,CLR,,0.00,WeatherDisplay:10.37,2015-05-28 17:00:00,
2015-05-29 03:05:00,57.2,55.2,30.18,SSW,210,1.0,1.0,93,0.00,CLR,,0.00,WeatherDisplay:10.37,2015-05-28 17:05:00,
2015-05-29 03:10:00,57.2,55.2,30.18,SSW,210,1.0,1.0,93,0.00,CLR,,0.00,WeatherDisplay:10.37,2015-05-28 17:10:00,
2015-05-29 03:15:00,57.2,55.2,30.18,WSW,241,5.0,5.0,93,0.00,CLR,,0.00,WeatherDisplay:10.37,2015-05-28 17:15:00,
2015-05-29 03:20:00,57.2,55.2,30.18,WSW,250,5.0,5.0,93,0.00,CLR,,0.00,WeatherDisplay:10.37,2015-05-28 17:20:00,
2015-05-29 03:25:00,57.2,55.2,30.18,WSW,250,5.0,5.0,93,0.00,CLR,,0.00,WeatherDisplay:10.37,2015-05-28 17:25:00,
2015-05-29 03:30:00,57.2,55.2,30.18,WSW,250,5.0,5.0,93,0.00,CLR,,0.00,WeatherDisplay:10.37,2015-05-28 17:30:00,
2015-05-29 03:35:00,57.2,55.2,30.18,WSW,250,5.0,5.0,93,0.00,CLR,,0.00,WeatherDisplay:10.37,2015-05-28 17:35:00,
2015-05-29 03:40:00,57.2,55.2,30.18,WSW,250,5.0,5.0,93,0.00,CLR,,0.00,WeatherDisplay:10.37,2015-05-28 17:40:00,
2015-05-29 03:45:00,57.2,55.2,30.18,WSW,250,5.0,5.0,93,0.00,CLR,,0.00,WeatherDisplay:10.37,2015-05-28 17:45:00,
2015-05-29 03:50:00,57.2,55.2,30.18,WSW,250,5.0,5.0,93,0.00,CLR,,0.00,WeatherDisplay:10.37,2015-05-28 17:50:00,
2015-05-29 03:55:00,57.2,57.2,30.18,WSW,250,6.0,6.0,100,0.00,CLR,,0.00,WeatherDisplay:10.37,2015-05-28 17:55:00,
2015-05-29 04:00:00,57.2,57.2,30.18,WSW,250,6.0,6.0,100,0.00,CLR,,0.00,WeatherDisplay:10.37,2015-05-28 18:00:00,
2015-05-29 04:05:00,57.2,57.2,30.18,WSW,250,6.0,6.0,100,0.00,CLR,,0.00,WeatherDisplay:10.37,2015-05-28 18:05:00,
2015-05-29 04:10:00,57.2,57.2,30.18,WSW,250,6.0,6.0,100,0.00,CLR,,0.00,WeatherDisplay:10.37,2015-05-28 18:10:00,
2015-05-29 04:15:00,57.2,57.2,30.18,WSW,250,0.0,6.0,100,0.00,CLR,,0.00,WeatherDisplay:10.37,2015-05-28 18:15:00,
2015-05-29 04:20:00,57.2,57.2,30.18,WSW,250,0.0,0.0,100,0.00,CLR,,0.00,WeatherDisplay:10.37,2015-05-28 18:20:00,
2015-05-29 04:25:00,57.2,57.2,30.18,WSW,250,0.0,0.0,100,0.00,CLR,,0.00,WeatherDisplay:10.37,2015-05-28 18:25:00,
2015-05-29 04:30:00,57.2,57.2,30.18,WSW,250,0.0,0.0,100,0.00,CLR,,0.00,WeatherDisplay:10.37,2015-05-28 18:30:00,
2015-05-29 04:35:00,57.2,57.2,30.18,WSW,250,0.0,0.0,100,0.00,CLR,,0.00,WeatherDisplay:10.37,2015-05-28 18:35:00,
2015-05-29 04:40:00,57.2,57.2,30.18,WSW,250,0.0,0.0,100,0.00,CLR,,0.00,WeatherDisplay:10.37,2015-05-28 18:40:00,
2015-05-29 04:45:00,57.2,57.2,30.18,WSW,250,0.0,0.0,100,0.00,CLR,,0.00,WeatherDisplay:10.37,2015-05-28 18:45:00,
2015-05-29 04:50:00,57.2,57.2,30.18,WSW,250,0.0,0.0,100,0.00,CLR,,0.00,WeatherDisplay:10.37,2015-05-28 18:50:00,
2015-05-29 04:55:00,59.0,57.0,30.18,West,273,5.0,5.0,93,0.00,CLR,,0.00,WeatherDisplay:10.37,2015-05-28 18:55:00,
2015-05-29 05:00:00,59.0,57.0,30.18,West,280,5.0,5.0,93,0.00,CLR,,0.00,WeatherDisplay:10.37,2015-05-28 19:00:00,
2015-05-29 05:05:00,59.0,57.0,30.18,West,280,5.0,5.0,93,0.00,CLR,,0.00,WeatherDisplay:10.37,2015-05-28 19:05:00,
2015-05-29 05:10:00,59.0,57.0,30.18,West,280,5.0,5.0,93,0.00,CLR,,0.00,WeatherDisplay:10.37,2015-05-28 19:10:00,
2015-05-29 05:15:00,57.2,55.2,30.18,WNW,286,1.0,5.0,93,0.00,CLR,,0.00,WeatherDisplay:10.37,2015-05-28 19:15:00,
2015-05-29 05:20:00,57.2,55.2,30.18,WNW,300,1.0,1.0,93,0.00,CLR,,0.00,WeatherDisplay:10.37,2015-05-28 19:20:00,
2015-05-29 05:25:00,57.2,55.2,30.18,WNW,300,1.0,1.0,93,0.00,CLR,,0.00,WeatherDisplay:10.37,2015-05-28 19:25:00,
2015-05-29 05:30:00,57.2,55.2,30.18,WNW,300,1.0,1.0,93,0.00,CLR,,0.00,WeatherDisplay:10.37,2015-05-28 19:30:00,
2015-05-29 05:35:00,57.2,55.2,30.18,WNW,300,1.0,1.0,93,0.00,CLR,,0.00,WeatherDisplay:10.37,2015-05-28 19:35:00,
2015-05-29 05:40:00,57.2,55.2,30.18,WNW,300,1.0,1.0,93,0.00,CLR,,0.00,WeatherDisplay:10.37,2015-05-28 19:40:00,
2015-05-29 05:45:00,57.2,55.2,30.18,WNW,300,1.0,1.0,93,0.00,CLR,,0.00,WeatherDisplay:10.37,2015-05-28 19:45:00,
2015-05-29 05:50:00,57.2,55.2,30.18,WNW,300,1.0,1.0,93,0.00,CLR,,0.00,WeatherDisplay:10.37,2015-05-28 19:50:00,
2015-05-29 05:55:00,55.4,55.4,30.18,WNW,300,0.0,1.0,100,0.00,CLR,,0.00,WeatherDisplay:10.37,2015-05-28 19:55:00,
2015-05-29 06:00:00,55.4,55.4,30.18,WNW,300,0.0,0.0,100,0.00,CLR,,0.00,WeatherDisplay:10.37,2015-05-28 20:00:00,
2015-05-29 06:05:00,55.4,55.4,30.18,WNW,300,0.0,0.0,100,0.00,CLR,,0.00,WeatherDisplay:10.37,2015-05-28 20:05:00,
2015-05-29 06:10:00,55.4,55.4,30.18,WNW,300,0.0,0.0,100,0.00,CLR,,0.00,WeatherDisplay:10.37,2015-05-28 20:10:00,
2015-05-29 06:15:00,57.2,55.2,30.18,WNW,300,0.0,0.0,93,0.00,CLR,,0.00,WeatherDisplay:10.37,2015-05-28 20:15:00,
2015-05-29 06:20:00,57.2,55.2,30.18,WNW,300,0.0,0.0,93,0.00,CLR,,0.00,WeatherDisplay:10.37,2015-05-28 20:20:00,
2015-05-29 06:25:00,57.2,55.2,30.18,WNW,300,0.0,0.0,93,0.00,CLR,,0.00,WeatherDisplay:10.37,2015-05-28 20:25:00,